Abbeville, LA

4:21 AM CDT on May 30, 2017 (GMT -0500)
Abbeville

Weather History for KIYA - November, 2012

Change the Weather History Date:

Monday, November 5, 2012

  Actual Average (KARA) Record (KARA)
Temperature  
Mean Temperature 70 °F -  
Max Temperature 78 °F 72 °F 86 °F (1994)
Min Temperature 60 °F 52 °F 29 °F (1991)
Cooling Degree Days 4    
Growing Degree Days 20 (Base 50)    
Moisture  
Dew Point 65 °F    
Average Humidity 93    
Maximum Humidity 100    
Minimum Humidity 68    
Precipitation  
Precipitation 0.01 in - - ()
Sea Level Pressure  
Sea Level Pressure 30.01 in    
Wind  
Wind Speed 4 mph ()    
Max Wind Speed 12 mph    
Max Gust Speed 17 mph    
Visibility 6.2 miles    
Events Fog , Rain , Thunderstorm    
Averages and records for this station are not official NWS values.
T = Trace of Precipitation, MM = Missing Value Source: Averaged Metar Reports

Daily Weather History Graph

Daily Weather History Graph

Search for Another Location

Airport or City:

Trip Planner

Search our weather history database for the weather conditions in past years. The results will help you decide how hot, cold, wet, or windy it might be!

Date:

Astronomy

Nov. 05, 2012 Rise Set
Actual Time 6:25 AM CST 5:17 PM CST
Civil Twilight 6:00 AM CST 5:42 PM CST
Nautical Twilight 5:32 AM CST 6:11 PM CST
Astronomical Twilight 5:04 AM CST 6:39 PM CST
Moon 10:55 PM CST (11/5) 11:44 AM CST (11/5)
Length of Visible Light 11h 41m
Length of Day
10h 52m
Waning Gibbous, 62% of the Moon is Illuminated
Nov 5
Waning Gibbous
Nov 6
Last Quarter
Nov 13
New
Nov 20
First Quarter
Nov 28
Full

Hourly Weather History & Observations

Time (CST) Temp. Dew Point Humidity Pressure Visibility Wind Dir Wind Speed Gust Speed Precip Events Conditions
12:15 AM 62.6 °F 62.6 °F 100% 30.07 in 0.2 mi Calm Calm - N/A Fog Fog
12:35 AM 63.1 °F 63.1 °F 100% 30.07 in 0.2 mi Calm Calm - 0.01 in Fog Fog
12:55 AM 63.9 °F 63.9 °F 100% 30.07 in 0.2 mi Calm Calm - 0.01 in Fog Fog
1:15 AM 64.4 °F 64.4 °F 100% 30.06 in 0.2 mi NE 3.5 mph - N/A Fog Fog
1:35 AM 64.4 °F 64.4 °F 100% 30.06 in 0.2 mi NE 4.6 mph - N/A Fog Fog
1:55 AM 64.4 °F 64.4 °F 100% 30.06 in 0.2 mi NNE 3.5 mph - N/A Fog Fog
2:15 AM 64.4 °F 64.4 °F 100% 30.06 in 0.5 mi Calm Calm - N/A Fog Fog
2:35 AM 64.4 °F 64.4 °F 100% 30.05 in 3.0 mi ENE 5.8 mph - N/A   Overcast
2:55 AM 64.0 °F 64.0 °F 100% 30.05 in 0.8 mi ENE 4.6 mph - N/A   Overcast
3:15 AM 63.9 °F 63.9 °F 100% 30.06 in 2.5 mi ENE 3.5 mph - N/A   Overcast
3:35 AM 63.5 °F 63.5 °F 100% 30.06 in 5.0 mi NE 4.6 mph - N/A   Overcast
3:55 AM 63.5 °F 63.5 °F 100% 30.06 in 2.5 mi ENE 4.6 mph - N/A   Overcast
4:15 AM 63.5 °F 63.5 °F 100% 30.06 in 2.0 mi NE 5.8 mph - N/A   Overcast
4:35 AM 63.3 °F 63.3 °F 100% 30.06 in 4.0 mi ENE 4.6 mph - N/A   Overcast
4:55 AM 63.0 °F 63.0 °F 100% 30.06 in 5.0 mi ENE 4.6 mph - N/A   Overcast
5:35 AM 62.6 °F 62.6 °F 100% 30.06 in 7.0 mi NE 3.5 mph - N/A   Overcast
5:55 AM 62.6 °F 62.6 °F 100% 30.07 in 5.0 mi Calm Calm - N/A   Overcast
6:15 AM 62.2 °F 62.2 °F 100% 30.07 in 2.5 mi Calm Calm - N/A   Overcast
6:35 AM 62.2 °F 62.2 °F 100% 30.07 in 4.0 mi Calm Calm - N/A   Overcast
6:55 AM 61.9 °F 61.9 °F 100% 30.07 in 4.0 mi East 3.5 mph - N/A   Overcast
7:15 AM 61.7 °F 61.7 °F 100% 30.08 in 3.0 mi NE 3.5 mph - N/A   Overcast
7:35 AM 62.1 °F 62.1 °F 100% 30.08 in 2.5 mi Calm Calm - N/A   Overcast
7:55 AM 62.2 °F 62.2 °F 100% 30.08 in 2.5 mi ESE 3.5 mph - N/A   Overcast
8:15 AM 62.4 °F 62.4 °F 100% 30.08 in 1.8 mi East 3.5 mph - N/A   Overcast
8:35 AM 62.6 °F 62.6 °F 100% 30.09 in 1.5 mi Calm Calm - N/A   Overcast
8:55 AM 62.6 °F 62.6 °F 100% 30.09 in 2.0 mi South 3.5 mph - N/A   Overcast
9:15 AM 62.8 °F 62.8 °F 100% 30.09 in 2.5 mi Calm Calm - N/A   Overcast
9:35 AM 63.5 °F 63.5 °F 100% 30.08 in 3.0 mi SSE 4.6 mph - N/A   Overcast
9:55 AM 64.6 °F 64.6 °F 100% 30.07 in 5.0 mi SE 6.9 mph - N/A   Overcast
10:15 AM 64.4 °F 64.4 °F 100% 30.07 in 7.0 mi South 6.9 mph - N/A   Overcast
10:35 AM 65.3 °F 65.3 °F 100% 30.06 in 10.0 mi SE 5.8 mph - N/A   Overcast
10:55 AM 67.3 °F 67.3 °F 100% 30.06 in 10.0 mi South 5.8 mph - N/A   Overcast
11:15 AM 70.0 °F 66.6 °F 89% 30.05 in 10.0 mi Calm Calm - N/A   Overcast
11:35 AM 72.0 °F 67.1 °F 85% 30.03 in 10.0 mi SE 5.8 mph - N/A   Mostly Cloudy
11:55 AM 73.9 °F 65.8 °F 76% 30.02 in 10.0 mi South 5.8 mph - N/A   Mostly Cloudy
12:15 PM 75.2 °F 66.0 °F 73% 30.01 in 10.0 mi SSW 4.6 mph - N/A   Mostly Cloudy
12:35 PM 76.1 °F 65.7 °F 70% 30.00 in 10.0 mi SW 4.6 mph - N/A   Overcast
12:55 PM 76.1 °F 66.2 °F 71% 29.99 in 10.0 mi SW 5.8 mph - N/A   Overcast
1:15 PM 76.1 °F 65.8 °F 70% 29.97 in 10.0 mi SW 8.1 mph - N/A   Overcast
1:35 PM 77.9 °F 67.1 °F 69% 29.96 in 10.0 mi South 8.1 mph - N/A   Mostly Cloudy
1:55 PM 77.5 °F 66.7 °F 69% 29.96 in 10.0 mi WSW 10.4 mph - N/A   Mostly Cloudy
2:15 PM 77.9 °F 66.4 °F 68% 29.95 in 10.0 mi WSW 11.5 mph - N/A   Scattered Clouds
2:35 PM 78.1 °F 66.6 °F 68% 29.95 in 10.0 mi SW 11.5 mph - N/A   Scattered Clouds
2:55 PM 77.5 °F 66.9 °F 70% 29.94 in 10.0 mi SW 10.4 mph - N/A   Clear
3:35 PM 76.3 °F 67.3 °F 74% 29.94 in 10.0 mi SW 10.4 mph - N/A   Scattered Clouds
3:55 PM 75.7 °F 67.3 °F 75% 29.93 in 10.0 mi SW 9.2 mph - N/A   Scattered Clouds
4:35 PM 74.5 °F 67.1 °F 78% 29.93 in 10.0 mi SW 8.1 mph - N/A   Scattered Clouds
4:55 PM 73.4 °F 68.2 °F 84% 29.93 in 10.0 mi SW 9.2 mph - N/A Rain Light Rain
5:15 PM 72.5 °F 68.0 °F 86% 29.92 in 10.0 mi SW 8.1 mph - N/A Thunderstorm Mostly Cloudy
5:35 PM 72.1 °F 68.2 °F 87% 29.93 in 10.0 mi SW 5.8 mph - N/A Thunderstorm Scattered Clouds
5:55 PM 71.8 °F 68.4 °F 89% 29.94 in 10.0 mi SSW 4.6 mph - N/A   Scattered Clouds
6:15 PM 71.2 °F 69.6 °F 95% 29.92 in 5.0 mi South 3.5 mph - N/A Rain , Thunderstorm Heavy Thunderstorms and Rain
6:35 PM 70.7 °F 70.2 °F 98% 29.95 in 10.0 mi Calm Calm - N/A Rain , Thunderstorm Light Thunderstorms and Rain
6:55 PM 69.4 °F 69.4 °F 100% 29.96 in 5.0 mi NW 8.1 mph 17.3 mph N/A Rain , Thunderstorm Heavy Thunderstorms and Rain
7:15 PM 68.2 °F 68.2 °F 100% 29.96 in 7.0 mi North 9.2 mph - N/A Rain , Thunderstorm Light Thunderstorms and Rain
7:35 PM 68.0 °F 67.6 °F 99% 29.93 in 7.0 mi West 4.6 mph - N/A Rain , Thunderstorm Light Thunderstorms and Rain
7:55 PM 68.0 °F 68.0 °F 100% 29.94 in 10.0 mi Calm Calm - N/A Thunderstorm Overcast
8:15 PM 67.3 °F 67.3 °F 100% 29.88 in 10.0 mi West 4.6 mph - N/A Thunderstorm Scattered Clouds
8:35 PM 66.0 °F 66.0 °F 100% 29.93 in 10.0 mi NW 4.6 mph - N/A   Scattered Clouds
8:55 PM 66.7 °F 66.7 °F 100% 29.98 in 10.0 mi NNW 5.8 mph - N/A   Scattered Clouds
9:15 PM 65.3 °F 65.3 °F 100% 29.92 in 10.0 mi NW 5.8 mph - N/A   Scattered Clouds
9:35 PM 64.4 °F 64.4 °F 100% 29.98 in 10.0 mi NNW 3.5 mph - N/A   Scattered Clouds
9:55 PM 64.0 °F 64.0 °F 100% 29.96 in 10.0 mi NNW 5.8 mph - N/A   Clear
10:15 PM 63.1 °F 63.1 °F 100% 29.98 in 10.0 mi North 4.6 mph - N/A   Clear
10:35 PM 62.6 °F 62.6 °F 100% 29.98 in 10.0 mi North 4.6 mph - N/A   Clear
10:55 PM 61.7 °F 61.7 °F 100% 29.98 in 7.0 mi NNW 3.5 mph - N/A   Clear
11:15 PM 61.7 °F 61.7 °F 100% 29.98 in 2.5 mi North 3.5 mph - N/A   Clear
11:35 PM 61.5 °F 61.5 °F 100% 29.98 in 2.5 mi NNW 3.5 mph - N/A   Clear
11:55 PM 60.8 °F 60.8 °F 100% 29.98 in 1.0 mi NNW 3.5 mph - N/A   Mist